Tuesday, August 21, 2018, 9:55 AM EDT
Back to Local

KAFN, Jaffrey Muni-silver Ranch

Location: Jaffrey, NH, United States Lat: 42.8
Local Time: 9:55 AM EDT (13:55 GMT) Lon: -72
Time Zone: US/Eastern Elev: 1040 ft

Show me the last for .
Show Coded

Time T Td Feel RH Dir Speed Gust Alt SLP Vis Weather Sky Remarks
2018-08-21 09:14 62 61 - 96 - Calm - 30.17 - 10 FEW002 BKN010 None
2018-08-21 08:52 61 60 - 96 - Calm - 30.18 30.19 7 OVC001 None
2018-08-21 08:39 59 59 - 100 - Calm - 30.18 - 3 BR OVC001 None
2018-08-21 08:34 59 59 - 100 - Calm - 30.19 - 1 BR OVC001 None
2018-08-21 08:31 59 59 - 100 - Calm - 30.19 - 1 BR OVC001 None
2018-08-21 07:54 57 57 - 100 - Calm - 30.19 - 0 BR OVC002 None
2018-08-21 07:52 57 57 - 100 - Calm - 30.18 30.19 1 BR OVC002 6-hr Min Temp (8am): 53.1°F
6-hr Max Temp (8am): 57.0°F
2018-08-21 07:50 57 57 - 100 - Calm - 30.18 - 1 BR OVC002 None
2018-08-21 07:10 54 54 - 100 - Calm - 30.18 - 4 BR OVC002 None
2018-08-21 07:02 54 54 - 100 - Calm - 30.19 - 2 BR OVC002 Variable visibility
2018-08-21 07:00 54 54 - 100 - Calm - 30.19 - 1 BR OVC002 None
2018-08-21 06:52 54 54 - 100 - Calm - 30.19 30.20 0 FG VV002 None
2018-08-21 05:52 54 54 - 100 - Calm - 30.17 30.18 0 BR VV002 None
2018-08-21 04:52 54 54 - 100 - Calm - 30.17 30.18 0 FG VV001 None
2018-08-21 03:52 54 54 - 100 - Calm - 30.18 30.19 0 FG VV001 None
2018-08-21 03:36 54 54 - 100 - Calm - 30.18 - 0 FG VV001 None
2018-08-21 03:29 54 54 - 100 - Calm - 30.18 - 1 BR OVC001 None
2018-08-21 03:27 54 54 - 100 - Calm - 30.19 - 1 BR OVC001 None
2018-08-21 03:01 54 54 - 100 - Calm - 30.19 - 3 BR BKN002 None
2018-08-21 02:52 53 53 - 100 - Calm - 30.19 30.20 1 BR BKN002 None
2018-08-21 02:47 54 54 - 100 - Calm - 30.20 - 3 BR SCT002 None
2018-08-21 01:24 56 55 - 96 - Calm - 30.21 - 6 BR SCT002 None
2018-08-21 00:52 56 55 - 96 - Calm - 30.22 30.22 9 CLR 24-hr Min Temp (1am): 55.9°F
24-hr Max Temp (1am): 75.9°F
2018-08-20 23:52 57 56 - 96 - Calm - 30.22 30.23 10 CLR None
2018-08-20 22:52 57 57 - 100 - Calm - 30.22 30.23 10 CLR None
2018-08-20 21:52 59 58 - 96 - Calm - 30.22 30.22 10 CLR None
2018-08-20 20:52 61 60 - 96 - Calm - 30.21 30.22 10 CLR None
2018-08-20 19:52 64 60 - 86 - Calm - 30.19 30.20 10 CLR 6-hr Min Temp (8pm): 64.0°F
6-hr Max Temp (8pm): 75.9°F
2018-08-20 18:52 70 59 - 68 - Calm - 30.19 30.19 10 CLR None
2018-08-20 17:52 71 59 76 65 Variable 6 - 30.18 30.18 10 CLR None
2018-08-20 16:52 73 60 77 63 Variable 3 - 30.18 30.19 10 FEW055 None
2018-08-20 15:52 74 60 77 61 150° 8 - 30.20 30.20 10 FEW033 FEW055 None
2018-08-20 14:52 74 59 77 59 Variable 5 - 30.19 30.20 10 FEW033 OVC050 None
2018-08-20 13:52 74 60 77 61 Variable 5 - 30.19 30.20 10 BKN050 6-hr Precip Total (2pm): 0.00"
6-hr Min Temp (2pm): 62.1°F
6-hr Max Temp (2pm): 75.0°F
2018-08-20 12:52 74 60 77 61 - - - 30.20 30.20 10 BKN047 None
2018-08-20 11:52 71 59 76 65 Variable 3 - 30.22 30.22 10 FEW026 FEW031 BKN050 None
2018-08-20 10:52 70 62 - 76 Variable 5 - 30.23 30.24 10 SCT020 BKN046 6-hr Precip Total (11am): 0.00"

Support USWX by starting your Amazon purchase here.